User: anonymous   Login
Location: Unspecified
(0.0000°N, 0.0000°E)
Time: 00:55:32
(UTC+00:00)
Language:

FORMOSAT 3B - Orbit

View from above orbital plane
View from above orbital plane
View from above satellite
View from above satellite

Ground track
Ground track

The orbit data is extracted from the following two-line orbital elements,

1 29048U 06011B   17324.60264644 +.00000044 +00000-0 +33693-4 0  9996
2 29048 071.9653 140.0045 0044438 200.7710 159.1622 14.28547195609580
Epoch (UTC): 20 November 2017 14:27:48
Eccentricity: 0.0044438
inclination: 71.9653°
perigee height: 765 km
apogee height: 828 km
right ascension of ascending node: 140.0045°
argument of perigee: 200.7710°
revolutions per day: 14.28547195
mean anomaly at epoch: 159.1622°
orbit number at epoch: 60958

The dashed part of the orbit path shows where the satellite is in the earth's shadow,  

DLR